Weather in Richmond

United States     37°33′22″N   77°27′37″W
temp.,
°C
wind,
m/s
gust,
m/s
humid.,
%
clouds,
%
prec.,
mm/h
press.,
hPa
HPBL,
m
20 may, fri
fri2023:00+22ese23615 0.0 101052
02:00+19sse238411 0.3 101064
05:00+18sw229237 2.7 101135
08:00+21s1389100 3.3 1012144
11:00+30sw595112 0.1 10121007
14:00+35sw59315 0.1 10112092
17:00+36sw59285 0.0 10112688
20:00+29sw311503 0.0 1012345
21 may, sat
sat2123:00+26ssw312629 0.0 1014305
02:00+25sw4155512 0.0 1015612
05:00+23sw3137339 0.0 1017472
08:00+24sw4117062 0.0 1019410
11:00+31sw4643100 0.0 10201017
14:00+35ssw46315 0.0 10182296
17:00+35ssw46315 0.0 10172566
20:00+29s511520 0.0 1018859
22 may, sun
sun2223:00+26ssw4126393 0.0 1020582
02:00+24wsw3126396 0.0 1020532
05:00+21ssw21179100 0.0 1020375
08:00+22ssw31076100 0.0 1021437
11:00+26ssw476131 0.0 1020944
14:00+31ssw364379 0.9 10182334
17:00+31ssw454649 0.1 10161294
20:00+27s396288 0.1 1017382
23 may, mon
mon2323:00+22w129387 2.8 101851
02:00+20n279768 3.4 1019284
05:00+18nne4119469 0.0 1019452
08:00+17nne5108299 0.0 1021552
11:00+21nne5659100 0.0 1022903
14:00+21n565469 0.1 1022919
17:00+14nne3881100 0.2 1022473
20:00+15ne3871100 0.2 1023398
24 may, tue
tue2423:00+16n2571100 0.1 1024262
02:00+15n2581100 0.3 1022211
05:00+15nne2776100 0.0 1021308
08:00+15n3779100 0.1 1023307
11:00+15nne2688100 0.5 1023376
14:00+19ene2475100 0.6 1022863
17:00+20ene2371100 0.0 1022884
20:00+18e2579100 0.0 1022535